Weather History for Madison, MN

Change the Weather History Date:

Tuesday, October 18, 2011

  Actual Average (KAQP) Record (KAQP)
Temperature  
Mean Temperature 40 °F -  
Max Temperature 48 °F 54 °F 80 °F (2005)
Min Temperature 33 °F 33 °F 28 °F (2013)
Degree Days  
Heating Degree Days 24    
Moisture  
Dew Point 29 °F    
Average Humidity 67    
Maximum Humidity 100    
Minimum Humidity 27    
Precipitation  
Precipitation 0.00 in - - ()
Sea Level Pressure  
Sea Level Pressure 30.06 in    
Wind  
Wind Speed 13 mph (NNW)    
Max Wind Speed 25 mph    
Max Gust Speed 33 mph    
Visibility 10 miles    
Events      
Averages and records for this station are not official NWS values.
T = Trace of Precipitation, MM = Missing Value Source: NWS Daily Summary

Daily Weather History Graph

Daily Weather History Graph

Search for Another Location

Airport:

Trip Planner

Search our weather history database for the weather conditions in past years. The results will help you decide how hot, cold, wet, or windy it might be!

Date:

Astronomy

Oct. 18, 2011 Rise Set
Actual Time 7:44 AM CDT 6:35 PM CDT
Civil Twilight 7:14 AM CDT 7:04 PM CDT
Nautical Twilight 6:40 AM CDT 7:38 PM CDT
Astronomical Twilight 6:06 AM CDT 8:12 PM CDT
Moon 11:08 PM CDT (10/18) 1:45 PM CDT (10/18)
Length of Visible Light 11h 50m
Length of Day
10h 51m
Waning Gibbous, 64% of the Moon is Illuminated
Oct 18
Waning Gibbous
Oct 19
Last Quarter
Oct 26
New
Nov 2
First Quarter
Nov 10
Full

Hourly Weather History & Observations

Time (CDT) Temp. Windchill Dew Point Humidity Pressure Visibility Wind Dir Wind Speed Gust Speed Precip Events Conditions
12:14 AM 39.2 °F 32.5 °F 32.0 °F 75% 29.96 in 10.0 mi NW 10.4 mph - N/A   Clear
12:33 AM 37.4 °F 30.3 °F 32.0 °F 81% 29.97 in 10.0 mi NW 10.4 mph - N/A   Clear
12:54 AM 39.2 °F 32.5 °F 32.0 °F 75% 29.97 in 10.0 mi NNW 10.4 mph - N/A   Clear
1:14 AM 39.2 °F 32.5 °F 33.8 °F 81% 29.97 in 10.0 mi NNW 10.4 mph - N/A   Clear
1:33 AM 37.4 °F 30.3 °F 33.8 °F 87% 29.98 in 10.0 mi NNW 10.4 mph - N/A   Clear
1:54 AM 37.4 °F 29.8 °F 33.8 °F 87% 29.99 in 10.0 mi NNW 11.5 mph - N/A   Clear
2:13 AM 37.4 °F 30.8 °F 33.8 °F 87% 29.99 in 10.0 mi NNW 9.2 mph - N/A   Clear
2:54 AM 35.6 °F 28.6 °F 33.8 °F 93% 30.00 in 10.0 mi NW 9.2 mph - N/A   Clear
3:13 AM 33.8 °F 26.4 °F 33.8 °F 100% 30.00 in 10.0 mi NW 9.2 mph - N/A   Clear
3:33 AM 35.6 °F 29.2 °F 33.8 °F 93% 30.00 in 10.0 mi NW 8.1 mph - N/A   Mostly Cloudy
3:54 AM 35.6 °F 28.6 °F 33.8 °F 93% 30.01 in 10.0 mi NW 9.2 mph - N/A   Overcast
4:13 AM 35.6 °F 28.6 °F 35.6 °F 100% 30.00 in 10.0 mi NW 9.2 mph - N/A   Overcast
4:33 AM 37.4 °F 28.9 °F 35.6 °F 93% 30.01 in 10.0 mi NW 13.8 mph - N/A   Overcast
4:54 AM 39.2 °F 33.0 °F 33.8 °F 81% 30.02 in 10.0 mi NNW 9.2 mph - N/A   Overcast
5:14 AM 37.4 °F 30.3 °F 35.6 °F 93% 30.02 in 10.0 mi NW 10.4 mph - N/A   Overcast
5:33 AM 39.2 °F 30.8 °F 35.6 °F 87% 30.03 in 10.0 mi NNW 15.0 mph 18.4 mph N/A   Overcast
5:54 AM 39.2 °F 30.5 °F 35.6 °F 87% 30.04 in 10.0 mi NNW 16.1 mph 19.6 mph N/A   Overcast
6:14 AM 39.2 °F 31.2 °F 35.6 °F 87% 30.05 in 10.0 mi NNW 13.8 mph 18.4 mph N/A   Overcast
6:33 AM 39.2 °F 29.8 °F 33.8 °F 81% 30.05 in 10.0 mi NNW 18.4 mph - N/A   Overcast
6:54 AM 39.2 °F 31.2 °F 33.8 °F 81% 30.06 in 10.0 mi NNW 13.8 mph - N/A   Overcast
7:14 AM 37.4 °F 30.3 °F 33.8 °F 87% 30.07 in 10.0 mi NW 10.4 mph - N/A   Scattered Clouds
7:33 AM 35.6 °F 28.0 °F 33.8 °F 93% 30.07 in 10.0 mi NW 10.4 mph 17.3 mph N/A   Scattered Clouds
7:54 AM 35.6 °F 28.6 °F 33.8 °F 93% 30.08 in 10.0 mi NW 9.2 mph - N/A   Clear
8:14 AM 35.6 °F 29.2 °F 33.8 °F 93% 30.08 in 10.0 mi NW 8.1 mph - N/A   Mostly Cloudy
8:33 AM 37.4 °F 30.3 °F 35.6 °F 93% 30.09 in 10.0 mi NW 10.4 mph - N/A   Overcast
8:54 AM 37.4 °F 30.8 °F 35.6 °F 93% 30.10 in 10.0 mi NW 9.2 mph - N/A   Overcast
9:13 AM 37.4 °F 29.8 °F 35.6 °F 93% 30.10 in 10.0 mi NW 11.5 mph - N/A   Overcast
9:34 AM 37.4 °F 28.9 °F 35.6 °F 93% 30.11 in 10.0 mi NNW 13.8 mph 18.4 mph N/A   Overcast
9:54 AM 39.2 °F 29.3 °F 35.6 °F 87% 30.11 in 10.0 mi NNW 20.7 mph - N/A   Scattered Clouds
10:13 AM 41.0 °F 31.4 °F 33.8 °F 76% 30.11 in 10.0 mi NNW 21.9 mph 27.6 mph N/A   Scattered Clouds
10:34 AM 41.0 °F 31.6 °F 33.8 °F 76% 30.12 in 10.0 mi NNW 20.7 mph - N/A   Scattered Clouds
10:53 AM 42.8 °F 34.0 °F 33.8 °F 70% 30.12 in 10.0 mi NNW 20.7 mph - N/A   Scattered Clouds
11:13 AM 42.8 °F 33.8 °F 32.0 °F 66% 30.12 in 10.0 mi NNW 21.9 mph 26.5 mph N/A   Scattered Clouds
11:54 AM 44.6 °F 36.4 °F 28.4 °F 53% 30.11 in 10.0 mi NNW 20.7 mph 33.4 mph N/A   Clear
12:13 PM 44.6 °F 37.2 °F 28.4 °F 53% 30.11 in 10.0 mi NNW 17.3 mph 29.9 mph N/A   Clear
12:34 PM 44.6 °F 36.1 °F 26.6 °F 49% 30.11 in 10.0 mi NNW 21.9 mph 28.8 mph N/A   Clear
12:53 PM 44.6 °F 35.7 °F 26.6 °F 49% 30.10 in 10.0 mi NNW 24.2 mph 31.1 mph N/A   Clear
1:13 PM 46.4 °F 38.7 °F 26.6 °F 46% 30.10 in 10.0 mi NNW 20.7 mph 29.9 mph N/A   Clear
1:34 PM 46.4 °F 38.3 °F 24.8 °F 43% 30.09 in 10.0 mi NNW 23.0 mph 28.8 mph N/A   Clear
1:54 PM 46.4 °F 39.0 °F 24.8 °F 43% 30.09 in 10.0 mi NNW 19.6 mph 31.1 mph N/A   Clear
2:13 PM 46.4 °F 39.2 °F 24.8 °F 43% 30.09 in 10.0 mi NNW 18.4 mph 28.8 mph N/A   Clear
2:34 PM 46.4 °F 38.7 °F 21.2 °F 37% 30.09 in 10.0 mi NNW 20.7 mph 28.8 mph N/A   Clear
2:53 PM 46.4 °F 38.5 °F 19.4 °F 34% 30.08 in 10.0 mi NNW 21.9 mph 33.4 mph N/A   Clear
3:13 PM 48.2 °F - 19.4 °F 32% 30.08 in 10.0 mi North 20.7 mph 28.8 mph N/A   Clear
3:34 PM 48.2 °F - 19.4 °F 32% 30.07 in 10.0 mi North 25.3 mph 31.1 mph N/A   Clear
3:54 PM 48.2 °F - 19.4 °F 32% 30.08 in 10.0 mi NNW 23.0 mph 31.1 mph N/A   Clear
4:13 PM 48.2 °F - 15.8 °F 27% 30.08 in 10.0 mi NNW 19.6 mph 29.9 mph N/A   Clear
4:34 PM 48.2 °F - 19.4 °F 32% 30.08 in 10.0 mi North 19.6 mph 27.6 mph N/A   Clear
4:53 PM 48.2 °F - 19.4 °F 32% 30.08 in 10.0 mi NNW 19.6 mph 25.3 mph N/A   Clear
5:13 PM 46.4 °F 39.8 °F 19.4 °F 34% 30.08 in 10.0 mi NNW 16.1 mph 25.3 mph N/A   Clear
5:34 PM 46.4 °F 38.7 °F 17.6 °F 32% 30.09 in 10.0 mi North 20.7 mph - N/A   Clear
5:54 PM 46.4 °F 40.1 °F 17.6 °F 32% 30.09 in 10.0 mi North 15.0 mph 19.6 mph N/A   Clear
6:13 PM 44.6 °F 38.4 °F 19.4 °F 37% 30.09 in 10.0 mi NNW 12.7 mph 20.7 mph N/A   Clear
6:34 PM 42.8 °F 36.6 °F 23.0 °F 46% 30.09 in 10.0 mi NNW 11.5 mph - N/A   Clear
6:53 PM 42.8 °F 37.0 °F 24.8 °F 49% 30.10 in 10.0 mi NNW 10.4 mph - N/A   Clear
7:13 PM 41.0 °F 35.2 °F 24.8 °F 53% 30.10 in 10.0 mi NNW 9.2 mph - N/A   Clear
7:34 PM 39.2 °F 33.6 °F 26.6 °F 61% 30.11 in 10.0 mi NNW 8.1 mph - N/A   Clear
7:54 PM 37.4 °F 31.4 °F 26.6 °F 65% 30.12 in 10.0 mi NNW 8.1 mph - N/A   Clear
8:13 PM 35.6 °F 29.9 °F 26.6 °F 70% 30.12 in 10.0 mi NW 6.9 mph - N/A   Clear
8:34 PM 35.6 °F 29.2 °F 26.6 °F 70% 30.12 in 10.0 mi NNW 8.1 mph - N/A   Clear
8:53 PM 35.6 °F 29.9 °F 26.6 °F 70% 30.12 in 10.0 mi NNW 6.9 mph - N/A   Clear
9:14 PM 35.6 °F 29.9 °F 26.6 °F 70% 30.13 in 10.0 mi NNW 6.9 mph - N/A   Clear
9:34 PM 33.8 °F 27.7 °F 26.6 °F 75% 30.13 in 10.0 mi NNW 6.9 mph - N/A   Clear
9:53 PM 33.8 °F 27.0 °F 26.6 °F 75% 30.13 in 10.0 mi NNW 8.1 mph - N/A   Clear
10:14 PM 35.6 °F 29.2 °F 26.6 °F 70% 30.14 in 10.0 mi NNW 8.1 mph - N/A   Clear
10:33 PM 32.0 °F 24.8 °F 26.6 °F 80% 30.14 in 10.0 mi NW 8.1 mph - N/A   Clear
11:13 PM 33.8 °F 25.8 °F 26.6 °F 75% 30.14 in 10.0 mi NNW 10.4 mph - N/A   Clear
11:33 PM 33.8 °F 25.8 °F 24.8 °F 70% 30.13 in 10.0 mi NNW 10.4 mph - N/A   Clear
11:54 PM 32.0 °F 25.6 °F 26.6 °F 80% 30.13 in 10.0 mi NW 6.9 mph - N/A   Clear